Location: Unspecified
(0.0000°N, 0.0000°E)
Time: 09:07:36
(UTC+00:00)

UNK - Visible Passes

Search period start: 04 April 2026 00:00
Search period end: 14 April 2026 00:00
Orbit: 665 x 680 km, 98.1° (Epoch: 29 March)

Date Brightness Start Highest point End Pass type
(mag) Time Alt. Az. Time Alt. Az. Time Alt. Az.
5 Apr 7.3 18:41:44 10° SSW 18:45:48 30° WSW 18:49:50 10° NW visible
6 Apr 8.1 05:22:07 10° NE 05:25:30 21° ESE 05:28:55 10° SSE visible
6 Apr 8.6 19:18:04 10° WSW 19:19:10 11° WSW 19:20:16 10° W visible
8 Apr 7.5 18:45:13 10° SSW 18:49:08 27° WSW 18:53:01 10° NW visible
9 Apr 7.9 05:25:15 10° NE 05:28:50 23° ESE 05:32:26 10° SSE visible
11 Apr 7.7 18:48:41 10° SSW 18:52:26 25° WSW 18:56:11 10° NW visible
12 Apr 7.8 05:28:24 10° NE 05:32:09 25° ESE 05:35:55 10° SSE visible
13 Apr 5.8 18:17:47 10° S 18:22:21 65° WSW 18:26:54 10° NNW visible
